Location: Calais Saint-Pierre
(50.9509°N, 1.8522°E)
Time: 21:22:07
(UTC+00:00)

ADEOS - Pass Details

Date: 15 May 2026
Orbit: 789 x 792 km, 98.8° (Epoch: 8 June)

Event Time Altitude Azimuth Distance (km) Brightness Sun altitude
Exits shadow 20:25:06 - 172° (S) 3,228 6.3 -7.0°
Reaches altitude 10° 20:27:19 10° 175° (S) 2,354 5.6 -7.3°
Maximum altitude 20:32:28 66° 257° (WSW) 867 4.0 -7.9°
Drops below altitude 10° 20:37:41 10° 340° (NNW) 2,369 7.2 -8.4°
Sets 20:40:03 0° 343° (NNW) 3,303 8.0 -8.7°
